FTU70P7 ZSHC-ZSHC

Flight info

Callsign FTU70P7
Flight time 0h 31m
Altitude 3000
Route LOCAL
Aircraft C172/L-SFG/C

Departure

Time 2026-05-04 13:53
Airport Hangzhou Xiaoshan International Airport (ZSHC)

Arrival

Time 2026-05-04 14:24
Airport Hangzhou Xiaoshan International Airport (ZSHC)
Time Latitude Longitude Altitude Speed Heading
2026-05-04 13:22 30.23524 120.41078 27 ft 0 kts 154°
2026-05-04 13:38 30.23529 120.41075 27 ft 0 kts 154°
2026-05-04 13:39 30.23532 120.41073 27 ft 2 kts 154°
2026-05-04 13:39 30.23547 120.41065 27 ft 2 kts 154°
2026-05-04 13:39 30.23562 120.41057 27 ft 2 kts 155°
2026-05-04 13:40 30.23577 120.41049 27 ft 2 kts 154°
2026-05-04 13:40 30.23592 120.41040 27 ft 2 kts 154°
2026-05-04 13:40 30.23607 120.41032 27 ft 2 kts 147°
2026-05-04 13:40 30.23615 120.41017 27 ft 2 kts 90°
2026-05-04 13:41 30.23613 120.41007 27 ft 0 kts 68°
2026-05-04 13:43 30.23622 120.41034 27 ft 5 kts 62°
2026-05-04 13:43 30.23638 120.41065 27 ft 4 kts 56°
2026-05-04 13:43 30.23647 120.41084 27 ft 1 kts 63°
2026-05-04 13:43 30.23649 120.41087 27 ft 0 kts 63°
2026-05-04 13:44 30.23658 120.41107 27 ft 11 kts 64°
2026-05-04 13:44 30.23693 120.41192 27 ft 11 kts 63°
2026-05-04 13:44 30.23723 120.41258 27 ft 9 kts 64°
2026-05-04 13:44 30.23750 120.41318 27 ft 8 kts 64°
2026-05-04 13:45 30.23758 120.41337 27 ft 0 kts 63°
2026-05-04 13:45 30.23765 120.41354 27 ft 4 kts 64°
2026-05-04 13:45 30.23774 120.41374 27 ft 4 kts 64°
2026-05-04 13:45 30.23805 120.41453 27 ft 18 kts 69°
2026-05-04 13:46 30.23885 120.41621 27 ft 25 kts 54°
2026-05-04 13:46 30.23920 120.41694 27 ft 0 kts 72°
2026-05-04 13:46 30.23920 120.41695 27 ft 1 kts 72°
2026-05-04 13:46 30.23963 120.41717 27 ft 8 kts
2026-05-04 13:47 30.23981 120.41714 27 ft 0 kts 339°
2026-05-04 13:47 30.23987 120.41711 27 ft 6 kts 339°
2026-05-04 13:47 30.23997 120.41706 27 ft 1 kts 340°
2026-05-04 13:47 30.24017 120.41707 27 ft 6 kts 19°
2026-05-04 13:48 30.24046 120.41723 27 ft 4 kts 35°
2026-05-04 13:48 30.24070 120.41744 27 ft 8 kts 40°
2026-05-04 13:48 30.24113 120.41781 27 ft 7 kts 37°
2026-05-04 13:48 30.24158 120.41819 27 ft 9 kts 34°
2026-05-04 13:49 30.24208 120.41863 27 ft 9 kts 36°
2026-05-04 13:49 30.24247 120.41898 28 ft 0 kts 38°
2026-05-04 13:49 30.24262 120.41910 28 ft 4 kts 37°
2026-05-04 13:50 30.24281 120.41918 28 ft 2 kts 337°
2026-05-04 13:50 30.24292 120.41897 28 ft 8 kts 259°
2026-05-04 13:50 30.24282 120.41875 28 ft 0 kts 235°
2026-05-04 13:51 30.24275 120.41863 28 ft 14 kts 240°
2026-05-04 13:51 30.24138 120.41558 27 ft 65 kts 242°
2026-05-04 13:52 30.23613 120.40385 267 ft 85 kts 248°
2026-05-04 13:52 30.23456 120.39737 425 ft 88 kts 263°
2026-05-04 13:52 30.23387 120.39015 425 ft 98 kts 263°
2026-05-04 13:53 30.22884 120.38486 468 ft 104 kts 194°
2026-05-04 13:53 30.22211 120.38638 644 ft 106 kts 160°
2026-05-04 13:53 30.21522 120.38950 795 ft 106 kts 163°
2026-05-04 13:54 30.20068 120.39556 951 ft 108 kts 156°
2026-05-04 13:54 30.19364 120.39953 899 ft 118 kts 158°
2026-05-04 13:54 30.17958 120.40714 1121 ft 105 kts 160°
2026-05-04 13:55 30.17321 120.41069 1143 ft 112 kts 163°
2026-05-04 13:55 30.16523 120.42718 583 ft 140 kts 70°
2026-05-04 13:55 30.16971 120.43616 737 ft 126 kts 59°
2026-05-04 13:56 30.17582 120.44414 681 ft 130 kts 52°
2026-05-04 13:56 30.18158 120.45198 702 ft 128 kts 48°
2026-05-04 13:56 30.19333 120.46708 809 ft 113 kts 54°
2026-05-04 13:57 30.19804 120.47306 1167 ft 100 kts 53°
2026-05-04 13:57 30.20317 120.47960 1186 ft 117 kts 51°
2026-05-04 13:58 30.21993 120.50226 1357 ft 129 kts 63°
2026-05-04 13:58 30.23535 120.51258 1255 ft 139 kts 349°
2026-05-04 13:58 30.24340 120.50714 1179 ft 132 kts 315°
2026-05-04 13:59 30.24998 120.50052 1324 ft 120 kts 317°
2026-05-04 13:59 30.25579 120.49450 1311 ft 115 kts 296°
2026-05-04 13:59 30.25042 120.47889 818 ft 96 kts 237°
2026-05-04 14:00 30.24662 120.47249 611 ft 99 kts 240°
2026-05-04 14:00 30.24009 120.45846 242 ft 99 kts 241°
2026-05-04 14:00 30.23696 120.45124 115 ft 97 kts 242°
2026-05-04 14:01 30.23421 120.44530 58 ft 65 kts 236°
2026-05-04 14:01 30.23244 120.44130 26 ft 63 kts 246°
2026-05-04 14:01 30.22905 120.43411 123 ft 80 kts 239°
2026-05-04 14:02 30.22724 120.43065 206 ft 79 kts 239°
2026-05-04 14:02 30.22472 120.42497 286 ft 84 kts 244°
2026-05-04 14:02 30.22212 120.41905 413 ft 81 kts 245°
2026-05-04 14:02 30.21968 120.41332 470 ft 94 kts 242°
2026-05-04 14:03 30.21625 120.40624 556 ft 107 kts 236°
2026-05-04 14:03 30.21222 120.39859 588 ft 119 kts 237°
2026-05-04 14:03 30.20749 120.39013 542 ft 128 kts 235°
2026-05-04 14:03 30.20354 120.38105 562 ft 128 kts 255°
2026-05-04 14:04 30.20613 120.36135 621 ft 132 kts 308°
2026-05-04 14:04 30.21067 120.35676 657 ft 131 kts 328°
2026-05-04 14:04 30.21871 120.35166 698 ft 124 kts 331°
2026-05-04 14:05 30.23634 120.34085 776 ft 121 kts 335°
2026-05-04 14:05 30.24425 120.33844 830 ft 118 kts
2026-05-04 14:05 30.24953 120.34031 767 ft 125 kts 35°
2026-05-04 14:06 30.25487 120.34807 661 ft 127 kts 66°
2026-05-04 14:06 30.25860 120.35736 659 ft 123 kts 73°
2026-05-04 14:06 30.26156 120.36659 639 ft 124 kts 72°
2026-05-04 14:06 30.26469 120.37580 687 ft 120 kts 72°
2026-05-04 14:07 30.26800 120.38437 784 ft 114 kts 66°
2026-05-04 14:07 30.27117 120.39124 890 ft 110 kts 67°
2026-05-04 14:07 30.27491 120.39905 972 ft 112 kts 63°
2026-05-04 14:07 30.28009 120.40638 921 ft 127 kts 43°
2026-05-04 14:08 30.28808 120.41123 884 ft 130 kts 28°
2026-05-04 14:08 30.29582 120.41651 847 ft 131 kts 36°
2026-05-04 14:08 30.30378 120.42212 686 ft 138 kts 27°
2026-05-04 14:08 30.31235 120.42745 506 ft 139 kts 32°
2026-05-04 14:09 30.32648 120.43939 707 ft 119 kts 47°
2026-05-04 14:09 30.33226 120.44626 838 ft 119 kts 51°
2026-05-04 14:10 30.34237 120.46237 845 ft 130 kts 78°
2026-05-04 14:10 30.34257 120.47271 781 ft 130 kts 111°
2026-05-04 14:10 30.33665 120.48018 575 ft 136 kts 156°
2026-05-04 14:10 30.33405 120.48136 499 ft 137 kts 162°
2026-05-04 14:11 30.31740 120.47975 455 ft 127 kts 211°
2026-05-04 14:11 30.30946 120.47465 386 ft 130 kts 209°
2026-05-04 14:12 30.30182 120.46948 411 ft 125 kts 212°
2026-05-04 14:12 30.29374 120.46699 362 ft 128 kts 155°
2026-05-04 14:12 30.29176 120.48569 427 ft 116 kts 98°
2026-05-04 14:13 30.29020 120.49508 489 ft 119 kts 109°
2026-05-04 14:13 30.28833 120.50432 617 ft 117 kts 103°
2026-05-04 14:13 30.28807 120.51350 669 ft 121 kts 69°
2026-05-04 14:13 30.28917 120.52243 744 ft 117 kts 124°
2026-05-04 14:14 30.28095 120.52561 339 ft 138 kts 189°
2026-05-04 14:14 30.26813 120.51341 626 ft 121 kts 246°
2026-05-04 14:14 30.26670 120.50361 645 ft 126 kts 262°
2026-05-04 14:15 30.26771 120.48386 835 ft 122 kts 285°
2026-05-04 14:15 30.27285 120.46563 972 ft 123 kts 293°
2026-05-04 14:16 30.27417 120.44574 990 ft 118 kts 257°
2026-05-04 14:16 30.27307 120.43632 1023 ft 123 kts 265°
2026-05-04 14:17 30.27412 120.41561 848 ft 133 kts 280°
2026-05-04 14:17 30.27655 120.40537 741 ft 135 kts 285°
2026-05-04 14:17 30.29375 120.39950 263 ft 143 kts
2026-05-04 14:18 30.30276 120.40305 224 ft 134 kts 29°
2026-05-04 14:18 30.31595 120.41632 124 ft 130 kts 65°
2026-05-04 14:19 30.32089 120.43554 202 ft 122 kts 86°
2026-05-04 14:19 30.32239 120.44466 423 ft 106 kts 73°
2026-05-04 14:19 30.32505 120.45283 463 ft 114 kts 70°
2026-05-04 14:19 30.32725 120.46170 463 ft 116 kts 99°
2026-05-04 14:20 30.32247 120.46983 168 ft 135 kts 147°
2026-05-04 14:20 30.31479 120.47536 232 ft 122 kts 151°
2026-05-04 14:20 30.30764 120.47995 364 ft 117 kts 151°
2026-05-04 14:21 30.29409 120.49112 525 ft 111 kts 149°
2026-05-04 14:21 30.28703 120.49451 607 ft 111 kts 173°
2026-05-04 14:21 30.27969 120.49369 682 ft 103 kts 196°
2026-05-04 14:21 30.27405 120.48819 537 ft 115 kts 230°
2026-05-04 14:22 30.26931 120.48089 527 ft 111 kts 237°
2026-05-04 14:22 30.26576 120.47347 610 ft 96 kts 247°
2026-05-04 14:22 30.26380 120.46712 563 ft 98 kts 246°
2026-05-04 14:22 30.26084 120.45992 489 ft 100 kts 241°
2026-05-04 14:23 30.25431 120.44553 221 ft 104 kts 244°
2026-05-04 14:23 30.25340 120.44335 178 ft 105 kts 242°
2026-05-04 14:23 30.25109 120.43773 89 ft 91 kts 245°
2026-05-04 14:24 30.24896 120.43304 40 ft 62 kts 242°
2026-05-04 14:24 30.24747 120.42979 28 ft 46 kts 243°
2026-05-04 14:24 30.24589 120.42620 31 ft 71 kts 242°
2026-05-04 14:24 30.24348 120.42073 127 ft 77 kts 242°
2026-05-04 14:25 30.24090 120.41554 272 ft 76 kts 241°
2026-05-04 14:25 30.23524 120.40265 491 ft 101 kts 243°
2026-05-04 14:25 30.23173 120.39532 691 ft 103 kts 239°
2026-05-04 14:26 30.22833 120.38832 892 ft 101 kts 236°
2026-05-04 14:26 30.22488 120.38087 979 ft 110 kts 239°
2026-05-04 14:26 30.22131 120.37293 1084 ft 112 kts 240°
2026-05-04 14:26 30.21777 120.36526 1307 ft 103 kts 237°
2026-05-04 14:27 30.21448 120.35748 1350 ft 113 kts 242°
2026-05-04 14:27 30.21082 120.34885 1235 ft 125 kts 240°
2026-05-04 14:27 30.20943 120.33929 1018 ft 141 kts 277°
2026-05-04 14:27 30.21393 120.32875 797 ft 140 kts 304°
2026-05-04 14:28 30.21901 120.31981 815 ft 128 kts 308°
2026-05-04 14:28 30.22298 120.31477 685 ft 131 kts 311°
2026-05-04 14:28 30.22828 120.30895 634 ft 133 kts 324°
2026-05-04 14:28 30.23620 120.30381 632 ft 132 kts 332°
2026-05-04 14:29 30.25269 120.29434 594 ft 135 kts 343°
2026-05-04 14:29 30.27084 120.29524 588 ft 129 kts 33°
2026-05-04 14:30 30.27688 120.30282 592 ft 124 kts 68°
2026-05-04 14:30 30.27860 120.31226 632 ft 127 kts 74°
2026-05-04 14:30 30.28416 120.33179 652 ft 129 kts 82°
2026-05-04 14:31 30.28509 120.34196 701 ft 125 kts 91°
2026-05-04 14:31 30.28530 120.36260 700 ft 126 kts 102°
2026-05-04 14:32 30.28108 120.38273 621 ft 130 kts 108°
2026-05-04 14:32 30.27838 120.39250 635 ft 128 kts 109°
2026-05-04 14:32 30.27584 120.40218 683 ft 126 kts 110°
2026-05-04 14:32 30.27354 120.41203 694 ft 127 kts 105°
2026-05-04 14:33 30.27230 120.41905 705 ft 127 kts 105°
2026-05-04 14:33 30.27117 120.42512 880 ft 115 kts 106°
2026-05-04 14:33 30.27043 120.43465 887 ft 125 kts 89°
2026-05-04 14:34 30.27309 120.44444 836 ft 133 kts 67°
2026-05-04 14:34 30.27605 120.45090 792 ft 135 kts 65°
2026-05-04 14:34 30.28032 120.46051 793 ft 130 kts 72°
2026-05-04 14:34 30.27926 120.47393 574 ft 138 kts 127°
2026-05-04 14:35 30.27141 120.47836 445 ft 135 kts 198°
2026-05-04 14:35 30.26781 120.47007 615 ft 119 kts 269°
2026-05-04 14:35 30.26240 120.46268 331 ft 132 kts 230°
2026-05-04 14:35 30.25893 120.45673 297 ft 131 kts 241°
2026-05-04 14:36 30.25536 120.44733 183 ft 134 kts 246°
2026-05-04 14:36 30.25212 120.43987 288 ft 76 kts 246°
2026-05-04 14:36 30.24953 120.43408 113 ft 83 kts 248°
2026-05-04 14:36 30.24811 120.43104 50 ft 71 kts 252°
2026-05-04 14:37 30.24644 120.42697 25 ft 49 kts 235°
2026-05-04 14:37 30.24522 120.42420 25 ft 35 kts 240°
2026-05-04 14:37 30.24464 120.42332 26 ft 30 kts 225°
2026-05-04 14:37 30.24363 120.42228 27 ft 17 kts 217°
2026-05-04 14:38 30.24336 120.42205 27 ft 0 kts 214°
2026-05-04 14:38 30.24329 120.42199 27 ft 6 kts 218°
2026-05-04 14:38 30.24304 120.42175 27 ft 4 kts 217°
2026-05-04 14:39 30.24293 120.42166 27 ft 0 kts 214°
2026-05-04 14:41 30.24287 120.42161 27 ft 1 kts 217°
2026-05-04 14:41 30.24246 120.42131 27 ft 16 kts 208°
2026-05-04 14:41 30.24169 120.42068 27 ft 18 kts 218°
2026-05-04 14:42 30.24081 120.41860 27 ft 12 kts 245°
2026-05-04 14:42 30.24048 120.41780 27 ft 10 kts 245°
2026-05-04 14:42 30.24021 120.41714 27 ft 8 kts 243°
2026-05-04 14:43 30.23994 120.41657 27 ft 10 kts 242°
2026-05-04 14:43 30.23949 120.41558 27 ft 17 kts 241°
2026-05-04 14:43 30.23888 120.41421 27 ft 16 kts 249°
2026-05-04 14:43 30.23842 120.41317 27 ft 13 kts 239°
2026-05-04 14:44 30.23783 120.41318 27 ft 10 kts 148°
2026-05-04 14:44 30.23760 120.41330 27 ft 0 kts 158°
2026-05-04 14:44 30.23762 120.41365 27 ft 5 kts 63°
2026-05-04 14:44 30.23777 120.41396 27 ft 4 kts 58°
2026-05-04 14:45 30.23790 120.41423 27 ft 5 kts 58°
2026-05-04 14:45 30.23822 120.41488 27 ft 13 kts 60°
2026-05-04 14:45 30.23863 120.41589 27 ft 13 kts 63°
2026-05-04 14:45 30.23882 120.41623 27 ft 5 kts 60°
2026-05-04 14:46 30.23887 120.41635 27 ft 0 kts 62°
2026-05-04 14:46 30.23890 120.41645 27 ft 3 kts 73°
2026-05-04 14:46 30.23892 120.41658 27 ft 0 kts 85°
2026-05-04 14:48 30.23876 120.41701 27 ft 8 kts 62°
2026-05-04 14:48 30.23866 120.41743 27 ft 5 kts 154°
2026-05-04 14:49 30.23838 120.41759 27 ft 3 kts 152°
2026-05-04 14:49 30.23829 120.41765 27 ft 0 kts 153°
2026-05-04 14:50 30.23755 120.41679 27 ft 20 kts 247°
2026-05-04 14:50 30.23700 120.41547 27 ft 16 kts 252°
2026-05-04 14:51 30.23732 120.41456 27 ft 10 kts 323°
2026-05-04 14:51 30.23743 120.41484 27 ft 0 kts 165°
2026-05-04 14:51 30.23709 120.41494 27 ft 6 kts 151°
2026-05-04 14:51 30.23698 120.41501 27 ft 0 kts 152°